Klamath Falls, OR

12:56 PM PST on January 22, 2018 (GMT -0800)
Klamath Falls International

Weather History for KLMT - April, 2013

Change the Weather History Date:

Thursday, April 18, 2013

  Actual Average Record
Temperature  
Mean Temperature 44 °F 44 °F  
Max Temperature 62 °F 57 °F 77 °F (2016)
Min Temperature 25 °F 30 °F 17 °F (1967)
Degree Days  
Heating Degree Days 21 21  
Month to date heating degree days 418 422  
Since 1 July heating degree days 5860 6084  
Cooling Degree Days 0 0  
Month to date cooling degree days 0 0  
Year to date cooling degree days 0 0  
Moisture  
Dew Point 29 °F    
Average Humidity 61    
Maximum Humidity 92    
Minimum Humidity 32    
Precipitation  
Precipitation 0.00 in 0.05 in 0.43 in (2001)
Month to date precipitation 1.05 0.70  
Year to date precipitation 2.53 5.74  
Sea Level Pressure  
Sea Level Pressure 30.34 in    
Wind  
Wind Speed 4 mph (West)    
Max Wind Speed 17 mph    
Max Gust Speed 22 mph    
Visibility 10 miles    
Events      
T = Trace of Precipitation, MM = Missing Value Source: NWS Daily Summary

Daily Weather History Graph

Daily Weather History Graph

Search for Another Location

Airport or City:

Trip Planner

Search our weather history database for the weather conditions in past years. The results will help you decide how hot, cold, wet, or windy it might be!

Date:

Astronomy

Apr. 18, 2013 Rise Set
Actual Time 6:20 AM PDT 7:52 PM PDT
Civil Twilight 5:51 AM PDT 8:21 PM PDT
Nautical Twilight 5:16 AM PDT 8:57 PM PDT
Astronomical Twilight 4:38 AM PDT 9:34 PM PDT
Moon 12:36 PM PDT (4/18) 2:11 AM PDT (4/18)
Length of Visible Light 14h 29m
Length of Day
13h 31m
First Quarter, 53% of the Moon is Illuminated
Apr 18
First Quarter
Apr 25
Full
May 2
Last Quarter
May 9
New
May 17
First Quarter

Hourly Weather History & Observations

Time (PDT) Temp. Windchill Dew Point Humidity Pressure Visibility Wind Dir Wind Speed Gust Speed Precip Events Conditions
12:53 AM 30.9 °F - 24.1 °F 76% 30.38 in 10.0 mi Calm Calm - N/A   Clear
1:53 AM 33.1 °F - 25.0 °F 72% 30.36 in 10.0 mi Calm Calm - N/A   Clear
2:53 AM 30.9 °F - 25.0 °F 79% 30.36 in 10.0 mi Calm Calm - N/A   Clear
3:53 AM 28.9 °F - 24.1 °F 82% 30.36 in 10.0 mi Calm Calm - N/A   Scattered Clouds
4:53 AM 28.0 °F - 25.0 °F 88% 30.37 in 10.0 mi Calm Calm - N/A   Partly Cloudy
5:53 AM 26.1 °F - 23.0 °F 88% 30.37 in 10.0 mi Calm Calm - N/A   Clear
6:53 AM 25.0 °F - 23.0 °F 92% 30.40 in 10.0 mi Calm Calm - N/A   Clear
7:53 AM 33.1 °F - 28.0 °F 82% 30.40 in 7.0 mi Calm Calm - N/A   Clear
8:53 AM 39.9 °F - 28.9 °F 65% 30.39 in 10.0 mi Calm Calm - N/A   Clear
9:53 AM 43.0 °F - 26.1 °F 51% 30.38 in 10.0 mi Calm Calm - N/A   Clear
10:53 AM 46.9 °F - 28.0 °F 48% 30.39 in 10.0 mi Variable 3.5 mph - N/A   Clear
11:53 AM 48.9 °F - 28.9 °F 46% 30.37 in 10.0 mi SSE 5.8 mph - N/A   Clear
12:53 PM 52.0 °F - 30.0 °F 43% 30.35 in 10.0 mi SSE 5.8 mph - N/A   Clear
1:53 PM 55.0 °F - 32.0 °F 42% 30.34 in 10.0 mi SSW 4.6 mph - N/A   Partly Cloudy
2:53 PM 57.9 °F - 30.9 °F 36% 30.33 in 10.0 mi Variable 3.5 mph - N/A   Partly Cloudy
3:53 PM 60.1 °F - 30.9 °F 33% 30.32 in 10.0 mi NW 8.1 mph 19.6 mph N/A   Scattered Clouds
4:53 PM 61.0 °F - 30.9 °F 32% 30.29 in 10.0 mi NNW 8.1 mph - N/A   Scattered Clouds
5:53 PM 59.0 °F - 30.9 °F 35% 30.30 in 10.0 mi NNW 11.5 mph - N/A   Clear
6:53 PM 59.0 °F - 33.1 °F 38% 30.30 in 10.0 mi NW 10.4 mph - N/A   Scattered Clouds
7:53 PM 53.1 °F - 37.0 °F 55% 30.30 in 10.0 mi NW 11.5 mph - N/A   Scattered Clouds
8:53 PM 48.9 °F - 37.0 °F 64% 30.29 in 10.0 mi WNW 6.9 mph - N/A   Scattered Clouds
9:53 PM 46.9 °F - 36.0 °F 66% 30.32 in 10.0 mi West 6.9 mph - N/A   Scattered Clouds
10:53 PM 39.9 °F 36.7 °F 35.1 °F 83% 30.30 in 10.0 mi South 4.6 mph - N/A   Clear
11:53 PM 39.9 °F - 34.0 °F 79% 30.30 in 10.0 mi Calm Calm - N/A   Clear